EWG8GJ EGKK-EDDS

Flight info

Callsign EWG8GJ
Flight time 1h 11m
Altitude 37000
Route MIMFO Y312 DVR UL9 KONAN UL607 KOK DCT LNO DCT MATUG DCT EMGOD L607 UBIDU L984 RUDUS Z738 UBENO N850 KRH T128 BADSO BADSO2A
Aircraft A319/M-SDE3FGHIRWY/LB1

Departure

Time 2026-04-16 07:27
Airport London Gatwick Airport (EGKK)

Arrival

Time 2026-04-16 08:38
Airport Stuttgart Airport (EDDS)
Time Latitude Longitude Altitude Speed Heading
2026-04-16 07:01 51.15886 -0.17315 204 ft 0 kts 347°
2026-04-16 07:19 51.15877 -0.17312 215 ft 3 kts 347°
2026-04-16 07:19 51.15858 -0.17305 207 ft 3 kts 347°
2026-04-16 07:19 51.15838 -0.17298 209 ft 3 kts 347°
2026-04-16 07:20 51.15819 -0.17291 209 ft 3 kts 341°
2026-04-16 07:20 51.15802 -0.17278 214 ft 3 kts 307°
2026-04-16 07:20 51.15796 -0.17256 211 ft 2 kts 261°
2026-04-16 07:20 51.15798 -0.17238 216 ft 3 kts 257°
2026-04-16 07:21 51.15800 -0.17224 216 ft 0 kts 257°
2026-04-16 07:22 51.15799 -0.17234 216 ft 2 kts 257°
2026-04-16 07:23 51.15793 -0.17276 212 ft 6 kts 257°
2026-04-16 07:23 51.15782 -0.17354 204 ft 9 kts 257°
2026-04-16 07:23 51.15765 -0.17466 204 ft 12 kts 245°
2026-04-16 07:23 51.15686 -0.17486 204 ft 14 kts 168°
2026-04-16 07:24 51.15579 -0.17449 214 ft 17 kts 167°
2026-04-16 07:24 51.15500 -0.17421 211 ft 5 kts 167°
2026-04-16 07:24 51.15437 -0.17400 209 ft 14 kts 168°
2026-04-16 07:24 51.15333 -0.17363 204 ft 17 kts 167°
2026-04-16 07:25 51.15225 -0.17293 211 ft 15 kts 145°
2026-04-16 07:25 51.15190 -0.17250 204 ft 6 kts 143°
2026-04-16 07:25 51.15149 -0.17208 207 ft 8 kts 164°
2026-04-16 07:25 51.15090 -0.17255 206 ft 11 kts 217°
2026-04-16 07:26 51.15045 -0.17362 208 ft 13 kts 257°
2026-04-16 07:26 51.15011 -0.17603 216 ft 44 kts 258°
2026-04-16 07:26 51.14904 -0.18383 203 ft 101 kts 258°
2026-04-16 07:26 51.14714 -0.19764 262 ft 145 kts 255°
2026-04-16 07:27 51.14517 -0.21285 962 ft 137 kts 255°
2026-04-16 07:27 51.14314 -0.22767 1561 ft 142 kts 254°
2026-04-16 07:27 51.14081 -0.24427 1853 ft 165 kts 255°
2026-04-16 07:27 51.13819 -0.26349 2164 ft 189 kts 256°
2026-04-16 07:28 51.13760 -0.28515 2773 ft 205 kts 279°
2026-04-16 07:28 51.14375 -0.30593 3631 ft 213 kts 306°
2026-04-16 07:28 51.15616 -0.31949 4498 ft 222 kts 337°
2026-04-16 07:28 51.17171 -0.32131 5387 ft 236 kts
2026-04-16 07:29 51.18637 -0.30866 6225 ft 249 kts 46°
2026-04-16 07:29 51.19423 -0.28402 7029 ft 253 kts 79°
2026-04-16 07:29 51.19782 -0.25548 7493 ft 277 kts 80°
2026-04-16 07:29 51.20180 -0.22400 8052 ft 297 kts 80°
2026-04-16 07:30 51.20597 -0.19161 8885 ft 304 kts 79°
2026-04-16 07:30 51.21030 -0.15818 9788 ft 309 kts 79°
2026-04-16 07:30 51.21476 -0.12379 10401 ft 324 kts 79°
2026-04-16 07:30 51.21943 -0.08766 10698 ft 346 kts 79°
2026-04-16 07:31 51.22438 -0.04903 11303 ft 356 kts 79°
2026-04-16 07:31 51.22931 -0.01043 12020 ft 361 kts 79°
2026-04-16 07:31 51.23438 0.02925 12584 ft 366 kts 79°
2026-04-16 07:31 51.23950 0.06946 13293 ft 371 kts 79°
2026-04-16 07:32 51.24458 0.10977 13919 ft 376 kts 79°
2026-04-16 07:32 51.24973 0.15103 14507 ft 380 kts 79°
2026-04-16 07:32 51.25341 0.19281 15075 ft 385 kts 88°
2026-04-16 07:32 51.25252 0.23582 15649 ft 388 kts 98°
2026-04-16 07:33 51.24917 0.27892 16217 ft 393 kts 99°
2026-04-16 07:33 51.24583 0.32211 16774 ft 398 kts 98°
2026-04-16 07:33 51.24246 0.36635 17374 ft 403 kts 98°
2026-04-16 07:33 51.23903 0.41116 17978 ft 408 kts 98°
2026-04-16 07:34 51.23556 0.45600 18494 ft 412 kts 98°
2026-04-16 07:34 51.23202 0.50171 19029 ft 417 kts 98°
2026-04-16 07:34 51.22842 0.54814 19578 ft 420 kts 98°
2026-04-16 07:34 51.22485 0.59407 20156 ft 424 kts 98°
2026-04-16 07:35 51.22119 0.64101 20740 ft 428 kts 98°
2026-04-16 07:35 51.21747 0.68840 21309 ft 433 kts 98°
2026-04-16 07:35 51.21369 0.73619 21873 ft 437 kts 98°
2026-04-16 07:35 51.20985 0.78454 22438 ft 441 kts 98°
2026-04-16 07:36 51.20597 0.83321 23003 ft 445 kts 98°
2026-04-16 07:36 51.20203 0.88240 23558 ft 449 kts 98°
2026-04-16 07:36 51.19805 0.93187 24021 ft 452 kts 99°
2026-04-16 07:36 51.19399 0.98188 24521 ft 455 kts 98°
2026-04-16 07:37 51.18989 1.03210 24945 ft 458 kts 98°
2026-04-16 07:37 51.18573 1.08261 25358 ft 461 kts 99°
2026-04-16 07:37 51.18154 1.13286 25764 ft 464 kts 99°
2026-04-16 07:37 51.17728 1.18400 26176 ft 467 kts 99°
2026-04-16 07:38 51.17299 1.23553 26580 ft 470 kts 99°
2026-04-16 07:38 51.16864 1.28725 26978 ft 473 kts 99°
2026-04-16 07:38 51.16424 1.33937 27378 ft 475 kts 99°
2026-04-16 07:38 51.16013 1.39189 27781 ft 479 kts 97°
2026-04-16 07:39 51.15700 1.44485 28149 ft 482 kts 95°
2026-04-16 07:39 51.15458 1.49829 28557 ft 485 kts 95°
2026-04-16 07:39 51.15250 1.55206 28950 ft 488 kts 94°
2026-04-16 07:39 51.15044 1.60617 29332 ft 490 kts 94°
2026-04-16 07:40 51.14820 1.66054 29704 ft 493 kts 95°
2026-04-16 07:40 51.14574 1.71443 30071 ft 496 kts 95°
2026-04-16 07:40 51.14300 1.76929 30401 ft 498 kts 96°
2026-04-16 07:40 51.14010 1.82441 30696 ft 501 kts 96°
2026-04-16 07:41 51.13713 1.87993 30982 ft 504 kts 96°
2026-04-16 07:41 51.13413 1.93566 31253 ft 506 kts 95°
2026-04-16 07:41 51.13115 1.99158 31548 ft 508 kts 95°
2026-04-16 07:41 51.12818 2.04774 31867 ft 511 kts 95°
2026-04-16 07:42 51.12520 2.10427 32301 ft 511 kts 95°
2026-04-16 07:42 51.12221 2.16061 32753 ft 511 kts 95°
2026-04-16 07:42 51.11922 2.21692 33154 ft 511 kts 95°
2026-04-16 07:42 51.11617 2.27321 33532 ft 511 kts 95°
2026-04-16 07:43 51.11306 2.32954 33911 ft 511 kts 95°
2026-04-16 07:43 51.10995 2.38587 34277 ft 511 kts 95°
2026-04-16 07:43 51.10683 2.44144 34644 ft 510 kts 95°
2026-04-16 07:43 51.10363 2.49752 35028 ft 509 kts 95°
2026-04-16 07:44 51.10040 2.55353 35400 ft 508 kts 95°
2026-04-16 07:44 51.09716 2.60931 35767 ft 506 kts 95°
2026-04-16 07:44 51.09258 2.66490 36119 ft 505 kts 102°
2026-04-16 07:44 51.08464 2.71922 36455 ft 504 kts 104°
2026-04-16 07:45 51.07636 2.77332 36786 ft 503 kts 104°
2026-04-16 07:45 51.06802 2.82730 37089 ft 502 kts 104°
2026-04-16 07:45 51.05969 2.88112 37182 ft 501 kts 104°
2026-04-16 07:46 51.04313 2.98831 37194 ft 499 kts 104°
2026-04-16 07:46 51.02659 3.09529 37197 ft 498 kts 104°
2026-04-16 07:47 51.00991 3.20218 37198 ft 498 kts 104°
2026-04-16 07:47 50.99307 3.30897 37193 ft 498 kts 105°
2026-04-16 07:48 50.97620 3.41481 37208 ft 498 kts 105°
2026-04-16 07:48 50.95922 3.52118 37212 ft 497 kts 105°
2026-04-16 07:49 50.94223 3.62737 37211 ft 497 kts 105°
2026-04-16 07:49 50.92508 3.73361 37211 ft 497 kts 105°
2026-04-16 07:50 50.90785 3.83962 37227 ft 496 kts 105°
2026-04-16 07:50 50.89058 3.94538 37227 ft 495 kts 105°
2026-04-16 07:51 50.87327 4.05087 37229 ft 495 kts 105°
2026-04-16 07:51 50.85575 4.15646 37227 ft 495 kts 105°
2026-04-16 07:52 50.83817 4.26181 37228 ft 495 kts 105°
2026-04-16 07:52 50.82059 4.36650 37227 ft 495 kts 105°
2026-04-16 07:53 50.80287 4.47165 37221 ft 495 kts 105°
2026-04-16 07:53 50.78511 4.57662 37186 ft 495 kts 105°
2026-04-16 07:54 50.76722 4.68160 37205 ft 494 kts 105°
2026-04-16 07:54 50.75227 4.76856 37216 ft 494 kts 105°
2026-04-16 07:55 50.73418 4.87312 37220 ft 493 kts 105°
2026-04-16 07:55 50.71610 4.97747 37221 ft 493 kts 105°
2026-04-16 07:56 50.69796 5.08162 37221 ft 492 kts 106°
2026-04-16 07:56 50.67968 5.18569 37226 ft 492 kts 106°
2026-04-16 07:57 50.66129 5.28955 37227 ft 492 kts 106°
2026-04-16 07:57 50.64281 5.39346 37224 ft 491 kts 106°
2026-04-16 07:58 50.62429 5.49697 37219 ft 491 kts 106°
2026-04-16 07:58 50.60574 5.60048 37218 ft 491 kts 106°
2026-04-16 07:59 50.58691 5.70373 37217 ft 490 kts 109°
2026-04-16 07:59 50.56230 5.80361 37213 ft 490 kts 113°
2026-04-16 08:00 50.53698 5.90299 37213 ft 489 kts 113°
2026-04-16 08:00 50.51157 6.00233 37202 ft 489 kts 113°
2026-04-16 08:01 50.48609 6.10139 37180 ft 489 kts 113°
2026-04-16 08:01 50.46061 6.20027 37185 ft 488 kts 113°
2026-04-16 08:02 50.43509 6.29898 37188 ft 488 kts 113°
2026-04-16 08:02 50.39790 6.44669 37185 ft 488 kts 110°
2026-04-16 08:03 50.37580 6.54713 37193 ft 487 kts 109°
2026-04-16 08:03 50.35402 6.64757 37203 ft 486 kts 110°
2026-04-16 08:04 50.33150 6.74738 37209 ft 486 kts 111°
2026-04-16 08:04 50.30848 6.84690 37222 ft 486 kts 111°
2026-04-16 08:05 50.28542 6.94625 37231 ft 486 kts 111°
2026-04-16 08:05 50.26246 7.04546 37229 ft 485 kts 111°
2026-04-16 08:06 50.23944 7.14459 37229 ft 485 kts 111°
2026-04-16 08:06 50.21631 7.24361 37226 ft 485 kts 111°
2026-04-16 08:07 50.19325 7.34199 37227 ft 485 kts 111°
2026-04-16 08:07 50.17158 7.44173 37209 ft 485 kts 109°
2026-04-16 08:08 50.15105 7.54230 37222 ft 485 kts 109°
2026-04-16 08:08 50.13024 7.64236 37231 ft 485 kts 109°
2026-04-16 08:09 50.10899 7.74141 37233 ft 484 kts 109°
2026-04-16 08:09 50.08745 7.84093 37231 ft 484 kts 110°
2026-04-16 08:10 50.06804 7.94112 37242 ft 484 kts 103°
2026-04-16 08:10 50.05195 8.04260 37240 ft 482 kts 110°
2026-04-16 08:11 50.02204 8.13511 37241 ft 477 kts 128°
2026-04-16 08:11 49.98421 8.21885 37245 ft 477 kts 128°
2026-04-16 08:12 49.94610 8.30320 37242 ft 477 kts 128°
2026-04-16 08:12 49.90794 8.38755 37244 ft 477 kts 128°
2026-04-16 08:13 49.86955 8.47145 37219 ft 476 kts 131°
2026-04-16 08:13 49.82501 8.54665 37234 ft 473 kts 137°
2026-04-16 08:14 49.77831 8.61820 37238 ft 469 kts 146°
2026-04-16 08:14 49.75123 8.64555 37232 ft 462 kts 157°
2026-04-16 08:14 49.72194 8.66487 37238 ft 455 kts 167°
2026-04-16 08:15 49.69126 8.67603 37240 ft 448 kts 178°
2026-04-16 08:15 49.66078 8.67910 37227 ft 441 kts 187°
2026-04-16 08:15 49.59997 8.67150 37220 ft 439 kts 190°
2026-04-16 08:16 49.53900 8.66342 37226 ft 440 kts 190°
2026-04-16 08:16 49.47801 8.65542 37231 ft 440 kts 190°
2026-04-16 08:17 49.41698 8.64728 37213 ft 440 kts 190°
2026-04-16 08:17 49.35591 8.63908 37221 ft 441 kts 190°
2026-04-16 08:19 49.11209 8.60196 36612 ft 441 kts 191°
2026-04-16 08:20 49.08156 8.59733 36350 ft 441 kts 190°
2026-04-16 08:20 49.05097 8.59274 35782 ft 443 kts 190°
2026-04-16 08:20 49.02003 8.58810 34974 ft 448 kts 190°
2026-04-16 08:20 48.98860 8.58521 34103 ft 457 kts 184°
2026-04-16 08:21 48.95682 8.58823 32908 ft 468 kts 180°
2026-04-16 08:21 48.92420 8.59514 31752 ft 482 kts 168°
2026-04-16 08:21 48.89357 8.61621 31165 ft 486 kts 150°
2026-04-16 08:21 48.86789 8.64970 30421 ft 491 kts 132°
2026-04-16 08:22 48.85023 8.69404 29652 ft 492 kts 111°
2026-04-16 08:22 48.84239 8.74420 28874 ft 490 kts 93°
2026-04-16 08:22 48.84499 8.79496 28336 ft 479 kts 78°
2026-04-16 08:22 48.85120 8.84472 27504 ft 478 kts 77°
2026-04-16 08:23 48.85738 8.89377 27024 ft 469 kts 77°
2026-04-16 08:23 48.86354 8.94219 26361 ft 465 kts 77°
2026-04-16 08:23 48.86965 8.99013 25746 ft 461 kts 77°
2026-04-16 08:23 48.87566 9.03771 25141 ft 456 kts 77°
2026-04-16 08:24 48.88154 9.08483 24540 ft 452 kts 77°
2026-04-16 08:24 48.88723 9.13161 23953 ft 448 kts 79°
2026-04-16 08:24 48.88761 9.17863 23317 ft 446 kts 99°
2026-04-16 08:24 48.87736 9.22270 22696 ft 441 kts 122°
2026-04-16 08:25 48.85758 9.25726 22094 ft 432 kts 144°
2026-04-16 08:25 48.83137 9.27775 21506 ft 421 kts 167°
2026-04-16 08:25 48.80282 9.28280 20929 ft 409 kts 187°
2026-04-16 08:25 48.77552 9.27369 20339 ft 400 kts 205°
2026-04-16 08:26 48.75241 9.25241 19846 ft 388 kts 224°
2026-04-16 08:26 48.73534 9.22181 19425 ft 376 kts 242°
2026-04-16 08:26 48.72565 9.18578 19007 ft 365 kts 259°
2026-04-16 08:26 48.72359 9.14813 18591 ft 356 kts 275°
2026-04-16 08:27 48.72882 9.11189 18096 ft 350 kts 291°
2026-04-16 08:27 48.73993 9.07948 17457 ft 348 kts 299°
2026-04-16 08:27 48.74820 9.04504 16777 ft 349 kts 278°
2026-04-16 08:27 48.74761 9.00872 16334 ft 343 kts 262°
2026-04-16 08:28 48.74180 8.97381 15858 ft 341 kts 253°
2026-04-16 08:28 48.73370 8.94027 15356 ft 338 kts 250°
2026-04-16 08:28 48.72513 8.90732 14870 ft 335 kts 250°
2026-04-16 08:28 48.71699 8.87448 14384 ft 332 kts 251°
2026-04-16 08:29 48.70954 8.84153 13879 ft 330 kts 253°
2026-04-16 08:29 48.70269 8.80852 13370 ft 326 kts 254°
2026-04-16 08:29 48.69632 8.77622 12895 ft 323 kts 255°
2026-04-16 08:29 48.69005 8.74367 12421 ft 320 kts 255°
2026-04-16 08:30 48.68391 8.71148 11958 ft 318 kts 255°
2026-04-16 08:30 48.67775 8.67942 11485 ft 315 kts 255°
2026-04-16 08:30 48.67160 8.64766 11032 ft 314 kts 255°
2026-04-16 08:30 48.66471 8.61638 10620 ft 312 kts 245°
2026-04-16 08:31 48.65131 8.59149 10495 ft 304 kts 219°
2026-04-16 08:31 48.63235 8.57868 10357 ft 299 kts 191°
2026-04-16 08:31 48.61201 8.58047 10240 ft 292 kts 163°
2026-04-16 08:31 48.59458 8.59528 9961 ft 289 kts 137°
2026-04-16 08:32 48.58338 8.62038 9499 ft 292 kts 109°
2026-04-16 08:32 48.58070 8.65047 9071 ft 291 kts 82°
2026-04-16 08:32 48.58544 8.68007 8640 ft 291 kts 71°
2026-04-16 08:32 48.59111 8.70915 8211 ft 294 kts 72°
2026-04-16 08:33 48.59696 8.73914 7574 ft 303 kts 72°
2026-04-16 08:33 48.60291 8.76972 7132 ft 303 kts 72°
2026-04-16 08:33 48.60893 8.80068 6726 ft 302 kts 72°
2026-04-16 08:33 48.61479 8.83092 6319 ft 298 kts 72°
2026-04-16 08:34 48.62049 8.86032 5919 ft 291 kts 72°
2026-04-16 08:34 48.62611 8.88936 5528 ft 286 kts 72°
2026-04-16 08:34 48.63163 8.91794 5149 ft 280 kts 72°
2026-04-16 08:34 48.63704 8.94593 4771 ft 274 kts 72°
2026-04-16 08:35 48.64234 8.97344 4398 ft 269 kts 72°
2026-04-16 08:35 48.64744 8.99998 4034 ft 256 kts 73°
2026-04-16 08:35 48.65228 9.02519 3708 ft 243 kts 73°
2026-04-16 08:35 48.65684 9.04895 3399 ft 228 kts 73°
2026-04-16 08:36 48.66115 9.07140 3085 ft 218 kts 73°
2026-04-16 08:36 48.66525 9.09281 2815 ft 206 kts 74°
2026-04-16 08:36 48.66911 9.11299 2523 ft 193 kts 74°
2026-04-16 08:36 48.67270 9.13175 2279 ft 176 kts 74°
2026-04-16 08:37 48.67584 9.14822 2054 ft 152 kts 74°
2026-04-16 08:37 48.67862 9.16287 1825 ft 140 kts 74°
2026-04-16 08:37 48.68129 9.17677 1620 ft 136 kts 73°
2026-04-16 08:37 48.68389 9.19035 1452 ft 133 kts 74°
2026-04-16 08:38 48.68640 9.20368 1311 ft 132 kts 73°
2026-04-16 08:38 48.68877 9.21613 1259 ft 104 kts 74°
2026-04-16 08:38 48.69029 9.22416 1228 ft 55 kts 74°
2026-04-16 08:38 48.69090 9.22735 1221 ft 18 kts 72°
2026-04-16 08:39 48.69159 9.22929 1217 ft 24 kts 53°
2026-04-16 08:39 48.69272 9.23109 1216 ft 17 kts 44°
2026-04-16 08:39 48.69363 9.23149 1221 ft 11 kts 340°
2026-04-16 08:39 48.69410 9.23069 1224 ft 10 kts 279°
2026-04-16 08:40 48.69394 9.22959 1226 ft 11 kts 254°
2026-04-16 08:40 48.69371 9.22841 1228 ft 12 kts 254°
2026-04-16 08:40 48.69348 9.22718 1231 ft 12 kts 254°
2026-04-16 08:40 48.69324 9.22591 1237 ft 13 kts 254°
2026-04-16 08:41 48.69299 9.22460 1239 ft 13 kts 254°
2026-04-16 08:41 48.69274 9.22328 1243 ft 13 kts 254°
2026-04-16 08:41 48.69249 9.22193 1253 ft 13 kts 254°
2026-04-16 08:41 48.69222 9.22053 1245 ft 15 kts 254°
2026-04-16 08:42 48.69203 9.21951 1259 ft 16 kts 254°
2026-04-16 08:42 48.69169 9.21774 1252 ft 19 kts 253°
2026-04-16 08:42 48.69138 9.21607 1258 ft 14 kts 254°
2026-04-16 08:42 48.69107 9.21445 1260 ft 18 kts 254°
2026-04-16 08:43 48.69068 9.21243 1266 ft 22 kts 253°
2026-04-16 08:43 48.69028 9.21027 1274 ft 18 kts 253°
2026-04-16 08:43 48.68992 9.20841 1274 ft 20 kts 254°
2026-04-16 08:43 48.68953 9.20630 1279 ft 19 kts 253°
2026-04-16 08:44 48.68926 9.20483 1283 ft 14 kts 255°
2026-04-16 08:44 48.68896 9.20321 1288 ft 18 kts 252°
2026-04-16 08:44 48.68873 9.20215 1290 ft 8 kts 252°
2026-04-16 08:44 48.68855 9.20119 1292 ft 11 kts 255°
2026-04-16 08:45 48.68828 9.20003 1294 ft 7 kts 241°
2026-04-16 08:45 48.68818 9.19926 1297 ft 9 kts 289°
2026-04-16 08:45 48.68868 9.19885 1301 ft 9 kts 350°
2026-04-16 08:45 48.68894 9.19829 1304 ft 8 kts 250°
2026-04-16 08:46 48.68874 9.19730 1307 ft 11 kts 255°
2026-04-16 08:46 48.68858 9.19646 1309 ft 8 kts 254°
2026-04-16 08:46 48.68843 9.19555 1310 ft 9 kts 276°
2026-04-16 08:46 48.68881 9.19527 1313 ft 5 kts 351°
2026-04-16 08:47 48.68910 9.19515 1314 ft 2 kts 343°
2026-04-16 08:47 48.68916 9.19512 1315 ft 0 kts 343°